M I D A S
Marine Information and Data Acquisition System
Tripno 1205 of the Zeeleeuw from 2007-01-24 08:53:16 to 2007-01-24 15:26:34
Back to CruiseResearch ActivitiesStationsMapUnderway DataData graphs

EquipmentUnitsComments
TimeDGPSUTC
LatitudeDGPSDM.mWGS84
LongitudeDGPSDM.mWGS84
SpeedMeteo Stationm/sRelative wind speed
DirectionMeteo StationdegRelative wind direction
TemperatureMeteo Stationdeg CelciusAir temperature
PressureMeteo StationPaAtmospheric pressure
HumidityMeteo Station%Relative humidity
Missing or incorrect values are displayed as -999
Metereological data collected by the RV Zeeleeuw from 2007-01-24 08:08:57 to 2007-01-24 15:40:08
                                                                                    Next 1000 lines
Time Latitude Longitude Speed Direction Temperature Pressure Humidity
2007-01-24 08:09:07 51°13.599 2°56.094 -999 -999 -999 -999 -999
2007-01-24 08:09:12 51°13.599 2°56.094 -999 -999 -999 -999 -999
2007-01-24 08:09:17 51°13.599 2°56.093 -999 -999 -999 -999 -999
2007-01-24 08:09:21 51°13.599 2°56.093 -999 -999 -999 -999 -999
2007-01-24 08:09:27 51°13.599 2°56.095 -999 -999 -999 -999 -999
2007-01-24 08:09:32 51°13.599 2°56.095 -999 -999 -999 -999 -999
2007-01-24 08:09:37 51°13.599 2°56.094 -999 -999 -999 -999 -999
2007-01-24 08:09:42 51°13.599 2°56.095 -999 -999 -999 -999 -999
2007-01-24 08:09:47 51°13.599 2°56.093 -999 -999 -999 -999 -999
2007-01-24 08:09:52 51°13.598 2°56.092 -999 -999 -999 -999 -999
2007-01-24 08:09:57 51°13.598 2°56.091 -999 -999 -999 -999 -999
2007-01-24 08:10:02 51°13.598 2°56.09 -999 -999 -999 -999 -999
2007-01-24 08:10:06 51°13.598 2°56.09 -999 -999 -999 -999 -999
2007-01-24 08:10:12 51°13.598 2°56.09 -999 -999 -999 -999 -999
2007-01-24 08:10:17 51°13.598 2°56.091 -999 -999 -999 -999 -999
2007-01-24 08:10:22 51°13.598 2°56.091 -999 -999 -999 -999 -999
2007-01-24 08:10:26 51°13.599 2°56.091 -999 -999 -999 -999 -999
2007-01-24 08:10:32 51°13.599 2°56.092 -999 -999 -999 -999 -999
2007-01-24 08:10:37 51°13.599 2°56.094 -999 -999 -999 -999 -999
2007-01-24 08:10:42 51°13.599 2°56.093 -999 -999 -999 -999 -999
2007-01-24 08:10:47 51°13.599 2°56.092 -999 -999 -999 -999 -999
2007-01-24 08:10:52 51°13.598 2°56.09 -999 -999 -999 -999 -999
2007-01-24 08:10:56 51°13.598 2°56.088 -999 -999 -999 -999 -999
2007-01-24 08:11:02 51°13.598 2°56.086 -999 -999 -999 -999 -999
2007-01-24 08:11:07 51°13.598 2°56.086 -999 -999 -999 -999 -999
2007-01-24 08:11:12 51°13.598 2°56.087 -999 -999 -999 -999 -999
2007-01-24 08:11:16 51°13.598 2°56.088 -999 -999 -999 -999 -999
2007-01-24 08:11:22 51°13.598 2°56.088 -999 -999 -999 -999 -999
2007-01-24 08:11:27 51°13.598 2°56.089 -999 -999 -999 -999 -999
2007-01-24 08:11:32 51°13.598 2°56.09 -999 -999 -999 -999 -999
2007-01-24 08:11:36 51°13.598 2°56.09 -999 -999 -999 -999 -999
2007-01-24 08:11:41 51°13.598 2°56.091 -999 -999 -999 -999 -999
2007-01-24 08:11:47 51°13.599 2°56.092 -999 -999 -999 -999 -999
2007-01-24 08:11:52 51°13.599 2°56.095 -999 -999 -999 -999 -999
2007-01-24 08:11:57 51°13.599 2°56.096 -999 -999 -999 -999 -999
2007-01-24 08:12:01 51°13.599 2°56.096 -999 -999 -999 -999 -999
2007-01-24 08:12:07 51°13.599 2°56.095 -999 -999 -999 -999 -999
2007-01-24 08:12:12 51°13.599 2°56.093 -999 -999 -999 -999 -999
2007-01-24 08:12:17 51°13.598 2°56.091 -999 -999 -999 -999 -999
2007-01-24 08:12:22 51°13.598 2°56.091 -999 -999 -999 -999 -999
2007-01-24 08:12:26 51°13.598 2°56.091 -999 -999 -999 -999 -999
2007-01-24 08:12:32 51°13.598 2°56.091 -999 -999 -999 -999 -999
2007-01-24 08:12:37 51°13.598 2°56.092 -999 -999 -999 -999 -999
2007-01-24 08:12:41 51°13.598 2°56.092 -999 -999 -999 -999 -999
2007-01-24 08:12:46 51°13.598 2°56.092 -999 -999 -999 -999 -999
2007-01-24 08:12:51 51°13.598 2°56.092 -999 -999 -999 -999 -999
2007-01-24 08:12:56 51°13.598 2°56.092 -999 -999 -999 -999 -999
2007-01-24 08:13:01 51°13.598 2°56.092 -999 -999 -999 -999 -999
2007-01-24 08:13:07 51°13.598 2°56.092 -999 -999 -999 -999 -999
2007-01-24 08:13:12 51°13.598 2°56.093 -999 -999 -999 -999 -999
2007-01-24 08:13:17 51°13.598 2°56.093 -999 -999 -999 -999 -999
2007-01-24 08:13:22 51°13.598 2°56.093 -999 -999 -999 -999 -999
2007-01-24 08:13:27 51°13.598 2°56.093 -999 -999 -999 -999 -999
2007-01-24 08:13:32 51°13.598 2°56.093 -999 -999 -999 -999 -999
2007-01-24 08:13:37 51°13.598 2°56.093 -999 -999 -999 -999 -999
2007-01-24 08:13:42 51°13.598 2°56.093 -999 -999 -999 -999 -999
2007-01-24 08:13:47 51°13.598 2°56.093 -999 -999 -999 -999 -999
2007-01-24 08:13:52 51°13.598 2°56.093 -999 -999 -999 -999 -999
2007-01-24 08:13:57 51°13.598 2°56.093 -999 -999 -999 -999 -999
2007-01-24 08:14:02 51°13.598 2°56.093 -999 -999 -999 -999 -999
2007-01-24 08:14:07 51°13.598 2°56.093 -999 -999 -999 -999 -999
2007-01-24 08:14:12 51°13.597 2°56.093 -999 -999 -999 -999 -999
2007-01-24 08:14:17 51°13.597 2°56.092 -999 -999 -999 -999 -999
2007-01-24 08:14:21 51°13.597 2°56.092 -999 -999 -999 -999 -999
2007-01-24 08:14:26 51°13.597 2°56.092 -999 -999 -999 -999 -999
2007-01-24 08:14:32 51°13.597 2°56.092 -999 -999 -999 -999 -999
2007-01-24 08:14:37 51°13.598 2°56.092 -999 -999 -999 -999 -999
2007-01-24 08:14:42 51°13.598 2°56.092 -999 -999 -999 -999 -999
2007-01-24 08:14:46 51°13.598 2°56.092 -999 -999 -999 -999 -999
2007-01-24 08:14:52 51°13.597 2°56.092 -999 -999 -999 -999 -999
2007-01-24 08:14:57 51°13.597 2°56.093 -999 -999 -999 -999 -999
2007-01-24 08:15:02 51°13.597 2°56.093 -999 -999 -999 -999 -999
2007-01-24 08:15:07 51°13.597 2°56.093 -999 -999 -999 -999 -999
2007-01-24 08:15:11 51°13.597 2°56.093 -999 -999 -999 -999 -999
2007-01-24 08:15:17 51°13.597 2°56.093 -999 -999 -999 -999 -999
2007-01-24 08:15:22 51°13.598 2°56.093 -999 -999 -999 -999 -999
2007-01-24 08:15:26 51°13.598 2°56.093 -999 -999 -999 -999 -999
2007-01-24 08:15:31 51°13.598 2°56.093 -999 -999 -999 -999 -999
2007-01-24 08:15:37 51°13.598 2°56.093 -999 -999 -999 -999 -999
2007-01-24 08:15:42 51°13.598 2°56.093 -999 -999 -999 -999 -999
2007-01-24 08:15:47 51°13.598 2°56.093 -999 -999 -999 -999 -999
2007-01-24 08:15:51 51°13.598 2°56.093 -999 -999 -999 -999 -999
2007-01-24 08:15:57 51°13.598 2°56.094 -999 -999 -999 -999 -999
2007-01-24 08:16:02 51°13.598 2°56.094 -999 -999 -999 -999 -999
2007-01-24 08:16:07 51°13.598 2°56.095 -999 -999 -999 -999 -999
2007-01-24 08:16:12 51°13.597 2°56.095 -999 -999 -999 -999 -999
2007-01-24 08:16:17 51°13.597 2°56.094 -999 -999 -999 -999 -999
2007-01-24 08:16:21 51°13.597 2°56.094 -999 -999 -999 -999 -999
2007-01-24 08:16:27 51°13.597 2°56.094 -999 -999 -999 -999 -999
2007-01-24 08:16:32 51°13.598 2°56.094 -999 -999 -999 -999 -999
2007-01-24 08:16:37 51°13.597 2°56.095 -999 -999 -999 -999 -999
2007-01-24 08:16:41 51°13.597 2°56.095 -999 -999 -999 -999 -999
2007-01-24 08:16:46 51°13.597 2°56.096 -999 -999 -999 -999 -999
2007-01-24 08:16:52 51°13.596 2°56.096 -999 -999 -999 -999 -999
2007-01-24 08:16:57 51°13.596 2°56.097 -999 -999 -999 -999 -999
2007-01-24 08:17:02 51°13.596 2°56.097 -999 -999 -999 -999 -999
2007-01-24 08:17:06 51°13.596 2°56.097 -999 -999 -999 -999 -999
2007-01-24 08:17:11 51°13.596 2°56.097 -999 -999 -999 -999 -999
2007-01-24 08:17:17 51°13.596 2°56.097 -999 -999 -999 -999 -999
2007-01-24 08:17:22 51°13.596 2°56.097 -999 -999 -999 -999 -999
2007-01-24 08:17:27 51°13.596 2°56.098 -999 -999 -999 -999 -999
2007-01-24 08:17:31 51°13.596 2°56.098 -999 -999 -999 -999 -999
2007-01-24 08:17:37 51°13.596 2°56.098 -999 -999 -999 -999 -999
2007-01-24 08:17:42 51°13.596 2°56.097 -999 -999 -999 -999 -999
2007-01-24 08:17:47 51°13.596 2°56.097 -999 -999 -999 -999 -999
2007-01-24 08:17:51 51°13.597 2°56.097 -999 -999 -999 -999 -999
2007-01-24 08:17:57 51°13.597 2°56.097 -999 -999 -999 -999 -999
2007-01-24 08:18:02 51°13.597 2°56.097 -999 -999 -999 -999 -999
2007-01-24 08:18:07 51°13.597 2°56.097 -999 -999 -999 -999 -999
2007-01-24 08:18:12 51°13.597 2°56.097 -999 -999 -999 -999 -999
2007-01-24 08:18:17 51°13.597 2°56.097 -999 -999 -999 -999 -999
2007-01-24 08:18:21 51°13.597 2°56.097 -999 -999 -999 -999 -999
2007-01-24 08:18:27 51°13.597 2°56.097 -999 -999 -999 -999 -999
2007-01-24 08:18:31 51°13.597 2°56.097 -999 -999 -999 -999 -999
2007-01-24 08:18:37 51°13.597 2°56.097 -999 -999 -999 -999 -999
2007-01-24 08:18:42 51°13.598 2°56.094 -999 -999 -999 -999 -999
2007-01-24 08:18:47 51°13.598 2°56.093 -999 -999 -999 -999 -999
2007-01-24 08:18:52 51°13.599 2°56.093 -999 -999 -999 -999 -999
2007-01-24 08:18:57 51°13.599 2°56.093 -999 -999 -999 -999 -999
2007-01-24 08:19:01 51°13.599 2°56.093 -999 -999 -999 -999 -999
2007-01-24 08:19:07 51°13.599 2°56.093 -999 -999 -999 -999 -999
2007-01-24 08:19:12 51°13.599 2°56.092 -999 -999 -999 -999 -999
2007-01-24 08:19:17 51°13.599 2°56.092 -999 -999 -999 -999 -999
2007-01-24 08:19:22 51°13.599 2°56.092 -999 -999 -999 -999 -999
2007-01-24 08:19:26 51°13.599 2°56.093 -999 -999 -999 -999 -999
2007-01-24 08:19:32 51°13.599 2°56.093 -999 -999 -999 -999 -999
2007-01-24 08:19:37 51°13.599 2°56.093 -999 -999 -999 -999 -999
2007-01-24 08:19:42 51°13.599 2°56.093 -999 -999 -999 -999 -999
2007-01-24 08:19:47 51°13.599 2°56.093 -999 -999 -999 -999 -999
2007-01-24 08:19:51 51°13.599 2°56.093 -999 -999 -999 -999 -999
2007-01-24 08:19:57 51°13.6 2°56.092 -999 -999 -999 -999 -999
2007-01-24 08:20:02 51°13.6 2°56.092 -999 -999 -999 -999 -999
2007-01-24 08:20:07 51°13.6 2°56.093 -999 -999 -999 -999 -999
2007-01-24 08:20:11 51°13.6 2°56.093 -999 -999 -999 -999 -999
2007-01-24 08:20:17 51°13.599 2°56.093 -999 -999 -999 -999 -999
2007-01-24 08:20:22 51°13.599 2°56.093 -999 -999 -999 -999 -999
2007-01-24 08:20:27 51°13.6 2°56.093 -999 -999 -999 -999 -999
2007-01-24 08:20:32 51°13.6 2°56.094 -999 -999 -999 -999 -999
2007-01-24 08:20:37 51°13.6 2°56.095 -999 -999 -999 -999 -999
2007-01-24 08:20:42 51°13.6 2°56.094 -999 -999 -999 -999 -999
2007-01-24 08:20:47 51°13.6 2°56.093 -999 -999 -999 -999 -999
2007-01-24 08:20:52 51°13.6 2°56.092 -999 -999 -999 -999 -999
2007-01-24 08:20:57 51°13.6 2°56.093 -999 -999 -999 -999 -999
2007-01-24 08:21:02 51°13.6 2°56.094 -999 -999 -999 -999 -999
2007-01-24 08:21:07 51°13.6 2°56.094 -999 -999 -999 -999 -999
2007-01-24 08:21:12 51°13.599 2°56.094 -999 -999 -999 -999 -999
2007-01-24 08:21:17 51°13.599 2°56.094 -999 -999 -999 -999 -999
2007-01-24 08:21:22 51°13.599 2°56.094 -999 -999 -999 -999 -999
2007-01-24 08:21:26 51°13.599 2°56.095 -999 -999 -999 -999 -999
2007-01-24 08:21:32 51°13.599 2°56.094 -999 -999 -999 -999 -999
2007-01-24 08:21:37 51°13.599 2°56.092 -999 -999 -999 -999 -999
2007-01-24 08:21:42 51°13.599 2°56.092 -999 -999 -999 -999 -999
2007-01-24 08:21:46 51°13.599 2°56.093 -999 -999 -999 -999 -999
2007-01-24 08:21:52 51°13.599 2°56.092 -999 -999 -999 -999 -999
2007-01-24 08:21:57 51°13.6 2°56.091 -999 -999 -999 -999 -999
2007-01-24 08:22:02 51°13.6 2°56.091 -999 -999 -999 -999 -999
2007-01-24 08:22:06 51°13.6 2°56.091 -999 -999 -999 -999 -999
2007-01-24 08:22:11 51°13.601 2°56.091 -999 -999 -999 -999 -999
2007-01-24 08:22:17 51°13.601 2°56.091 -999 -999 -999 -999 -999
2007-01-24 08:22:22 51°13.601 2°56.091 -999 -999 -999 -999 -999
2007-01-24 08:22:27 51°13.601 2°56.091 -999 -999 -999 -999 -999
2007-01-24 08:22:31 51°13.601 2°56.091 -999 -999 -999 -999 -999
2007-01-24 08:22:37 51°13.601 2°56.091 -999 -999 -999 -999 -999
2007-01-24 08:22:42 51°13.601 2°56.09 -999 -999 -999 -999 -999
2007-01-24 08:22:47 51°13.601 2°56.091 -999 -999 -999 -999 -999
2007-01-24 08:22:52 51°13.601 2°56.091 -999 -999 -999 -999 -999
2007-01-24 08:22:57 51°13.601 2°56.091 -999 -999 -999 -999 -999
2007-01-24 08:23:01 51°13.601 2°56.091 -999 -999 -999 -999 -999
2007-01-24 08:23:07 51°13.6 2°56.092 -999 -999 -999 -999 -999
2007-01-24 08:23:12 51°13.6 2°56.092 -999 -999 -999 -999 -999
2007-01-24 08:23:17 51°13.601 2°56.091 -999 -999 -999 -999 -999
2007-01-24 08:23:21 51°13.601 2°56.091 -999 -999 -999 -999 -999
2007-01-24 08:23:27 51°13.601 2°56.091 -999 -999 -999 -999 -999
2007-01-24 08:23:32 51°13.601 2°56.091 -999 -999 -999 -999 -999
2007-01-24 08:23:37 51°13.601 2°56.091 -999 -999 -999 -999 -999
2007-01-24 08:23:42 51°13.601 2°56.091 -999 -999 -999 -999 -999
2007-01-24 08:23:46 51°13.601 2°56.091 -999 -999 -999 -999 -999
2007-01-24 08:23:52 51°13.601 2°56.091 -999 -999 -999 -999 -999
2007-01-24 08:23:57 51°13.6 2°56.095 -999 -999 -999 -999 -999
2007-01-24 08:24:02 51°13.599 2°56.096 -999 -999 -999 -999 -999
2007-01-24 08:24:07 51°13.598 2°56.097 -999 -999 -999 -999 -999
2007-01-24 08:24:11 51°13.598 2°56.097 -999 -999 -999 -999 -999
2007-01-24 08:24:17 51°13.597 2°56.098 -999 -999 -999 -999 -999
2007-01-24 08:24:22 51°13.598 2°56.095 -999 -999 -999 -999 -999
2007-01-24 08:24:27 51°13.599 2°56.093 -999 -999 -999 -999 -999
2007-01-24 08:24:31 51°13.6 2°56.092 -999 -999 -999 -999 -999
2007-01-24 08:24:37 51°13.601 2°56.091 -999 -999 -999 -999 -999
2007-01-24 08:24:42 51°13.601 2°56.091 -999 -999 -999 -999 -999
2007-01-24 08:24:47 51°13.601 2°56.092 -999 -999 -999 -999 -999
2007-01-24 08:24:52 51°13.601 2°56.092 -999 -999 -999 -999 -999
2007-01-24 08:24:57 51°13.601 2°56.092 -999 -999 -999 -999 -999
2007-01-24 08:25:02 51°13.601 2°56.092 -999 -999 -999 -999 -999
2007-01-24 08:25:07 51°13.601 2°56.092 -999 -999 -999 -999 -999
2007-01-24 08:25:12 51°13.601 2°56.092 -999 -999 -999 -999 -999
2007-01-24 08:25:17 51°13.601 2°56.092 -999 -999 -999 -999 -999
2007-01-24 08:25:21 51°13.601 2°56.092 -999 -999 -999 -999 -999
2007-01-24 08:25:27 51°13.601 2°56.092 -999 -999 -999 -999 -999
2007-01-24 08:25:32 51°13.6 2°56.092 -999 -999 -999 -999 -999
2007-01-24 08:25:37 51°13.6 2°56.092 -999 -999 -999 -999 -999
2007-01-24 08:25:42 51°13.6 2°56.092 -999 -999 -999 -999 -999
2007-01-24 08:25:47 51°13.6 2°56.092 -999 -999 -999 -999 -999
2007-01-24 08:25:52 51°13.6 2°56.092 -999 -999 -999 -999 -999
2007-01-24 08:25:57 51°13.6 2°56.092 -999 -999 -999 -999 -999
2007-01-24 08:26:02 51°13.6 2°56.092 -999 -999 -999 -999 -999
2007-01-24 08:26:06 51°13.6 2°56.092 -999 -999 -999 -999 -999
2007-01-24 08:26:12 51°13.6 2°56.092 -999 -999 -999 -999 -999
2007-01-24 08:26:17 51°13.6 2°56.093 -999 -999 -999 -999 -999
2007-01-24 08:26:22 51°13.6 2°56.093 -999 -999 -999 -999 -999
2007-01-24 08:26:26 51°13.6 2°56.093 -999 -999 -999 -999 -999
2007-01-24 08:26:31 51°13.6 2°56.092 -999 -999 -999 -999 -999
2007-01-24 08:26:37 51°13.6 2°56.092 -999 -999 -999 -999 -999
2007-01-24 08:26:42 51°13.6 2°56.093 -999 -999 -999 -999 -999
2007-01-24 08:26:47 51°13.6 2°56.093 -999 -999 -999 -999 -999
2007-01-24 08:26:51 51°13.6 2°56.093 -999 -999 -999 -999 -999
2007-01-24 08:26:57 51°13.6 2°56.093 -999 -999 -999 -999 -999
2007-01-24 08:27:02 51°13.6 2°56.093 -999 -999 -999 -999 -999
2007-01-24 08:27:07 51°13.6 2°56.093 -999 -999 -999 -999 -999
2007-01-24 08:27:11 51°13.6 2°56.093 -999 -999 -999 -999 -999
2007-01-24 08:27:17 51°13.6 2°56.093 -999 -999 -999 -999 -999
2007-01-24 08:27:21 51°13.6 2°56.093 -999 -999 -999 -999 -999
2007-01-24 08:27:27 51°13.6 2°56.093 -999 -999 -999 -999 -999
2007-01-24 08:27:32 51°13.6 2°56.093 -999 -999 -999 -999 -999
2007-01-24 08:27:37 51°13.6 2°56.093 -999 -999 -999 -999 -999
2007-01-24 08:27:41 51°13.6 2°56.093 -999 -999 -999 -999 -999
2007-01-24 08:27:47 51°13.599 2°56.095 -999 -999 -999 -999 -999
2007-01-24 08:27:52 51°13.599 2°56.094 -999 -999 -999 -999 -999
2007-01-24 08:27:57 51°13.6 2°56.093 -999 -999 -999 -999 -999
2007-01-24 08:28:02 51°13.6 2°56.093 -999 -999 -999 -999 -999
2007-01-24 08:28:06 51°13.6 2°56.093 -999 -999 -999 -999 -999
2007-01-24 08:28:12 51°13.6 2°56.093 -999 -999 -999 -999 -999
2007-01-24 08:28:17 51°13.6 2°56.093 -999 -999 -999 -999 -999
2007-01-24 08:28:22 51°13.6 2°56.093 -999 -999 -999 -999 -999
2007-01-24 08:28:27 51°13.6 2°56.093 -999 -999 -999 -999 -999
2007-01-24 08:28:32 51°13.6 2°56.093 -999 -999 -999 -999 -999
2007-01-24 08:28:37 51°13.599 2°56.093 -999 -999 -999 -999 -999
2007-01-24 08:28:42 51°13.6 2°56.093 -999 -999 -999 -999 -999
2007-01-24 08:28:46 51°13.6 2°56.093 -999 -999 -999 -999 -999
2007-01-24 08:28:51 51°13.6 2°56.093 -999 -999 -999 -999 -999
2007-01-24 08:28:57 51°13.6 2°56.093 -999 -999 -999 -999 -999
2007-01-24 08:29:02 51°13.599 2°56.093 -999 -999 -999 -999 -999
2007-01-24 08:29:07 51°13.599 2°56.093 -999 -999 -999 -999 -999
2007-01-24 08:29:11 51°13.599 2°56.094 -999 -999 -999 -999 -999
2007-01-24 08:29:17 51°13.599 2°56.094 -999 -999 -999 -999 -999
2007-01-24 08:29:22 51°13.599 2°56.094 -999 -999 -999 -999 -999
2007-01-24 08:29:27 51°13.599 2°56.094 -999 -999 -999 -999 -999
2007-01-24 08:29:32 51°13.599 2°56.094 -999 -999 -999 -999 -999
2007-01-24 08:29:37 51°13.599 2°56.094 -999 -999 -999 -999 -999
2007-01-24 08:29:42 51°13.599 2°56.094 -999 -999 -999 -999 -999
2007-01-24 08:29:47 51°13.599 2°56.094 -999 -999 -999 -999 -999
2007-01-24 08:29:52 51°13.599 2°56.094 -999 -999 -999 -999 -999
2007-01-24 08:29:57 51°13.599 2°56.094 -999 -999 -999 -999 -999
2007-01-24 08:30:02 51°13.599 2°56.094 -999 -999 -999 -999 -999
2007-01-24 08:30:07 51°13.599 2°56.093 -999 -999 -999 -999 -999
2007-01-24 08:30:12 51°13.599 2°56.093 -999 -999 -999 -999 -999
2007-01-24 08:30:17 51°13.599 2°56.093 -999 -999 -999 -999 -999
2007-01-24 08:30:22 51°13.599 2°56.093 -999 -999 -999 -999 -999
2007-01-24 08:30:27 51°13.599 2°56.093 -999 -999 -999 -999 -999
2007-01-24 08:30:32 51°13.599 2°56.093 -999 -999 -999 -999 -999
2007-01-24 08:30:37 51°13.599 2°56.093 -999 -999 -999 -999 -999
2007-01-24 08:30:42 51°13.599 2°56.093 -999 -999 -999 -999 -999
2007-01-24 08:30:46 51°13.599 2°56.093 -999 -999 -999 -999 -999
2007-01-24 08:30:51 51°13.599 2°56.094 -999 -999 -999 -999 -999
2007-01-24 08:30:57 51°13.599 2°56.094 -999 -999 -999 -999 -999
2007-01-24 08:31:02 51°13.599 2°56.094 -999 -999 -999 -999 -999
2007-01-24 08:31:06 51°13.599 2°56.094 -999 -999 -999 -999 -999
2007-01-24 08:31:11 51°13.599 2°56.094 -999 -999 -999 -999 -999
2007-01-24 08:31:17 51°13.599 2°56.094 -999 -999 -999 -999 -999
2007-01-24 08:31:22 51°13.599 2°56.094 -999 -999 -999 -999 -999
2007-01-24 08:31:27 51°13.599 2°56.094 -999 -999 -999 -999 -999
2007-01-24 08:31:31 51°13.599 2°56.094 -999 -999 -999 -999 -999
2007-01-24 08:31:37 51°13.599 2°56.094 -999 -999 -999 -999 -999
2007-01-24 08:31:42 51°13.599 2°56.094 -999 -999 -999 -999 -999
2007-01-24 08:31:47 51°13.599 2°56.094 -999 -999 -999 -999 -999
2007-01-24 08:31:52 51°13.6 2°56.093 -999 -999 -999 -999 -999
2007-01-24 08:31:57 51°13.6 2°56.093 -999 -999 -999 -999 -999
2007-01-24 08:32:02 51°13.6 2°56.093 -999 -999 -999 -999 -999
2007-01-24 08:32:07 51°13.6 2°56.093 -999 -999 -999 -999 -999
2007-01-24 08:32:12 51°13.6 2°56.092 -999 -999 -999 -999 -999
2007-01-24 08:32:17 51°13.6 2°56.092 -999 -999 -999 -999 -999
2007-01-24 08:32:22 51°13.6 2°56.092 -999 -999 -999 -999 -999
2007-01-24 08:32:27 51°13.6 2°56.092 -999 -999 -999 -999 -999
2007-01-24 08:32:32 51°13.6 2°56.092 -999 -999 -999 -999 -999
2007-01-24 08:32:37 51°13.6 2°56.092 -999 -999 -999 -999 -999
2007-01-24 08:32:42 51°13.6 2°56.092 -999 -999 -999 -999 -999
2007-01-24 08:32:46 51°13.6 2°56.092 -999 -999 -999 -999 -999
2007-01-24 08:32:52 51°13.6 2°56.092 -999 -999 -999 -999 -999
2007-01-24 08:32:57 51°13.6 2°56.092 -999 -999 -999 -999 -999
2007-01-24 08:33:02 51°13.6 2°56.092 -999 -999 -999 -999 -999
2007-01-24 08:33:06 51°13.6 2°56.092 -999 -999 -999 -999 -999
2007-01-24 08:33:12 51°13.6 2°56.092 -999 -999 -999 -999 -999
2007-01-24 08:33:17 51°13.6 2°56.091 -999 -999 -999 -999 -999
2007-01-24 08:33:22 51°13.6 2°56.091 -999 -999 -999 -999 -999
2007-01-24 08:33:27 51°13.6 2°56.091 -999 -999 -999 -999 -999
2007-01-24 08:33:31 51°13.6 2°56.091 -999 -999 -999 -999 -999
2007-01-24 08:33:37 51°13.6 2°56.091 -999 -999 -999 -999 -999
2007-01-24 08:33:42 51°13.6 2°56.091 -999 -999 -999 -999 -999
2007-01-24 08:33:47 51°13.6 2°56.091 -999 -999 -999 -999 -999
2007-01-24 08:33:52 51°13.6 2°56.091 -999 -999 -999 -999 -999
2007-01-24 08:33:57 51°13.6 2°56.091 -999 -999 -999 -999 -999
2007-01-24 08:34:02 51°13.6 2°56.091 -999 -999 -999 -999 -999
2007-01-24 08:34:07 51°13.6 2°56.091 -999 -999 -999 -999 -999
2007-01-24 08:34:12 51°13.6 2°56.091 -999 -999 -999 -999 -999
2007-01-24 08:34:17 51°13.6 2°56.092 -999 -999 -999 -999 -999
2007-01-24 08:34:22 51°13.6 2°56.092 -999 -999 -999 -999 -999
2007-01-24 08:34:27 51°13.6 2°56.092 -999 -999 -999 -999 -999
2007-01-24 08:34:32 51°13.6 2°56.092 -999 -999 -999 -999 -999
2007-01-24 08:34:37 51°13.6 2°56.092 -999 -999 -999 -999 -999
2007-01-24 08:34:42 51°13.6 2°56.092 -999 -999 -999 -999 -999
2007-01-24 08:34:46 51°13.6 2°56.092 -999 -999 -999 -999 -999
2007-01-24 08:34:52 51°13.599 2°56.092 -999 -999 -999 -999 -999
2007-01-24 08:34:57 51°13.599 2°56.092 -999 -999 -999 -999 -999
2007-01-24 08:35:02 51°13.599 2°56.092 -999 -999 -999 -999 -999
2007-01-24 08:35:06 51°13.599 2°56.092 -999 -999 -999 -999 -999
2007-01-24 08:35:12 51°13.599 2°56.093 -999 -999 -999 -999 -999
2007-01-24 08:35:17 51°13.599 2°56.093 -999 -999 -999 -999 -999
2007-01-24 08:35:22 51°13.599 2°56.093 -999 -999 -999 -999 -999
2007-01-24 08:35:27 51°13.599 2°56.093 -999 -999 -999 -999 -999
2007-01-24 08:35:31 51°13.599 2°56.093 -999 -999 -999 -999 -999
2007-01-24 08:35:37 51°13.599 2°56.093 -999 -999 -999 -999 -999
2007-01-24 08:35:42 51°13.599 2°56.093 -999 -999 -999 -999 -999
2007-01-24 08:35:47 51°13.599 2°56.094 -999 -999 -999 -999 -999
2007-01-24 08:35:51 51°13.598 2°56.094 -999 -999 -999 -999 -999
2007-01-24 08:35:57 51°13.599 2°56.094 -999 -999 -999 -999 -999
2007-01-24 08:36:02 51°13.598 2°56.094 -999 -999 -999 -999 -999
2007-01-24 08:36:07 51°13.598 2°56.094 -999 -999 -999 -999 -999
2007-01-24 08:36:12 51°13.598 2°56.094 -999 -999 -999 -999 -999
2007-01-24 08:36:17 51°13.598 2°56.094 -999 -999 -999 -999 -999
2007-01-24 08:36:22 51°13.598 2°56.094 -999 -999 -999 -999 -999
2007-01-24 08:36:27 51°13.598 2°56.094 -999 -999 -999 -999 -999
2007-01-24 08:36:32 51°13.597 2°56.094 -999 -999 -999 -999 -999
2007-01-24 08:36:37 51°13.597 2°56.094 -999 -999 -999 -999 -999
2007-01-24 08:36:42 51°13.597 2°56.094 -999 -999 -999 -999 -999
2007-01-24 08:36:47 51°13.597 2°56.095 -999 -999 -999 -999 -999
2007-01-24 08:36:52 51°13.597 2°56.095 -999 -999 -999 -999 -999
2007-01-24 08:36:57 51°13.597 2°56.095 -999 -999 -999 -999 -999
2007-01-24 08:37:02 51°13.597 2°56.095 -999 -999 -999 -999 -999
2007-01-24 08:37:07 51°13.597 2°56.095 -999 -999 -999 -999 -999
2007-01-24 08:37:12 51°13.597 2°56.095 -999 -999 -999 -999 -999
2007-01-24 08:37:17 51°13.597 2°56.095 -999 -999 -999 -999 -999
2007-01-24 08:37:22 51°13.597 2°56.094 -999 -999 -999 -999 -999
2007-01-24 08:37:26 51°13.597 2°56.094 -999 -999 -999 -999 -999
2007-01-24 08:37:32 51°13.597 2°56.094 -999 -999 -999 -999 -999
2007-01-24 08:37:37 51°13.597 2°56.094 -999 -999 -999 -999 -999
2007-01-24 08:37:42 51°13.597 2°56.094 -999 -999 -999 -999 -999
2007-01-24 08:37:47 51°13.597 2°56.094 -999 -999 -999 -999 -999
2007-01-24 08:37:51 51°13.597 2°56.094 -999 -999 -999 -999 -999
2007-01-24 08:37:57 51°13.598 2°56.094 -999 -999 -999 -999 -999
2007-01-24 08:38:02 51°13.598 2°56.094 -999 -999 -999 -999 -999
2007-01-24 08:38:07 51°13.598 2°56.094 -999 -999 -999 -999 -999
2007-01-24 08:38:11 51°13.598 2°56.094 -999 -999 -999 -999 -999
2007-01-24 08:38:17 51°13.598 2°56.094 -999 -999 -999 -999 -999
2007-01-24 08:38:22 51°13.598 2°56.094 -999 -999 -999 -999 -999
2007-01-24 08:38:27 51°13.598 2°56.094 -999 -999 -999 -999 -999
2007-01-24 08:38:32 51°13.598 2°56.094 -999 -999 -999 -999 -999
2007-01-24 08:38:37 51°13.598 2°56.093 -999 -999 -999 -999 -999
2007-01-24 08:38:42 51°13.598 2°56.093 -999 -999 -999 -999 -999
2007-01-24 08:38:47 51°13.598 2°56.093 -999 -999 -999 -999 -999
2007-01-24 08:38:52 51°13.598 2°56.093 -999 -999 -999 -999 -999
2007-01-24 08:38:57 51°13.598 2°56.093 -999 -999 -999 -999 -999
2007-01-24 08:39:01 51°13.598 2°56.093 -999 -999 -999 -999 -999
2007-01-24 08:39:07 51°13.598 2°56.093 -999 -999 -999 -999 -999
2007-01-24 08:39:12 51°13.598 2°56.093 -999 -999 -999 -999 -999
2007-01-24 08:39:17 51°13.598 2°56.093 -999 -999 -999 -999 -999
2007-01-24 08:39:22 51°13.598 2°56.093 -999 -999 -999 -999 -999
2007-01-24 08:39:26 51°13.598 2°56.093 -999 -999 -999 -999 -999
2007-01-24 08:39:32 51°13.598 2°56.093 -999 -999 -999 -999 -999
2007-01-24 08:39:37 51°13.598 2°56.093 -999 -999 -999 -999 -999
2007-01-24 08:39:42 51°13.598 2°56.093 -999 -999 -999 -999 -999
2007-01-24 08:39:47 51°13.598 2°56.093 -999 -999 -999 -999 -999
2007-01-24 08:39:52 51°13.598 2°56.093 -999 -999 -999 -999 -999
2007-01-24 08:39:57 51°13.598 2°56.093 -999 -999 -999 -999 -999
2007-01-24 08:40:02 51°13.598 2°56.093 -999 -999 -999 -999 -999
2007-01-24 08:40:07 51°13.598 2°56.093 -999 -999 -999 -999 -999
2007-01-24 08:40:12 51°13.598 2°56.093 -999 -999 -999 -999 -999
2007-01-24 08:40:17 51°13.598 2°56.093 -999 -999 -999 -999 -999
2007-01-24 08:40:22 51°13.598 2°56.094 -999 -999 -999 -999 -999
2007-01-24 08:40:27 51°13.598 2°56.094 -999 -999 -999 -999 -999
2007-01-24 08:40:31 51°13.598 2°56.094 -999 -999 -999 -999 -999
2007-01-24 08:40:37 51°13.598 2°56.093 -999 -999 -999 -999 -999
2007-01-24 08:40:42 51°13.598 2°56.093 -999 -999 -999 -999 -999
2007-01-24 08:40:47 51°13.598 2°56.093 -999 -999 -999 -999 -999
2007-01-24 08:40:51 51°13.598 2°56.093 -999 -999 -999 -999 -999
2007-01-24 08:40:56 51°13.598 2°56.093 -999 -999 -999 -999 -999
2007-01-24 08:41:02 51°13.598 2°56.093 -999 -999 -999 -999 -999
2007-01-24 08:41:06 51°13.598 2°56.093 -999 -999 -999 -999 -999
2007-01-24 08:41:11 51°13.598 2°56.093 -999 -999 -999 -999 -999
2007-01-24 08:41:16 51°13.598 2°56.093 -999 -999 -999 -999 -999
2007-01-24 08:41:21 51°13.598 2°56.092 -999 -999 -999 -999 -999
2007-01-24 08:41:27 51°13.598 2°56.092 -999 -999 -999 -999 -999
2007-01-24 08:41:32 51°13.598 2°56.092 -999 -999 -999 -999 -999
2007-01-24 08:41:37 51°13.598 2°56.093 -999 -999 -999 -999 -999
2007-01-24 08:41:42 51°13.599 2°56.093 -999 -999 -999 -999 -999
2007-01-24 08:41:47 51°13.599 2°56.092 -999 -999 -999 -999 -999
2007-01-24 08:41:51 51°13.599 2°56.092 -999 -999 -999 -999 -999
2007-01-24 08:41:57 51°13.598 2°56.092 -999 -999 -999 -999 -999
2007-01-24 08:42:02 51°13.598 2°56.091 -999 -999 -999 -999 -999
2007-01-24 08:42:06 51°13.598 2°56.091 -999 -999 -999 -999 -999
2007-01-24 08:42:11 51°13.598 2°56.091 -999 -999 -999 -999 -999
2007-01-24 08:42:16 51°13.598 2°56.091 -999 -999 -999 -999 -999
2007-01-24 08:42:21 51°13.598 2°56.091 -999 -999 -999 -999 -999
2007-01-24 08:42:26 51°13.599 2°56.091 -999 -999 -999 -999 -999
2007-01-24 08:42:31 51°13.599 2°56.091 -999 -999 -999 -999 -999
2007-01-24 08:42:36 51°13.599 2°56.091 -999 -999 -999 -999 -999
2007-01-24 08:42:42 51°13.6 2°56.091 -999 -999 -999 -999 -999
2007-01-24 08:42:46 51°13.6 2°56.091 -999 -999 -999 -999 -999
2007-01-24 08:42:51 51°13.6 2°56.091 -999 -999 -999 -999 -999
2007-01-24 08:42:56 51°13.6 2°56.091 -999 -999 -999 -999 -999
2007-01-24 08:43:02 51°13.6 2°56.091 -999 -999 -999 -999 -999
2007-01-24 08:43:06 51°13.6 2°56.091 -999 -999 -999 -999 -999
2007-01-24 08:43:11 51°13.599 2°56.09 -999 -999 -999 -999 -999
2007-01-24 08:43:16 51°13.599 2°56.09 -999 -999 -999 -999 -999
2007-01-24 08:43:22 51°13.599 2°56.09 -999 -999 -999 -999 -999
2007-01-24 08:43:26 51°13.598 2°56.091 -999 -999 -999 -999 -999
2007-01-24 08:43:31 51°13.597 2°56.091 -999 -999 -999 -999 -999
2007-01-24 08:43:35 51°13.597 2°56.091 -999 -999 -999 -999 -999
2007-01-24 08:43:41 51°13.597 2°56.091 -999 -999 -999 -999 -999
2007-01-24 08:43:47 51°13.597 2°56.091 -999 -999 -999 -999 -999
2007-01-24 08:43:51 51°13.597 2°56.091 -999 -999 -999 -999 -999
2007-01-24 08:43:57 51°13.599 2°56.09 -999 -999 -999 -999 -999
2007-01-24 08:44:01 51°13.599 2°56.09 -999 -999 -999 -999 -999
2007-01-24 08:44:06 51°13.6 2°56.09 -999 -999 -999 -999 -999
2007-01-24 08:44:11 51°13.6 2°56.09 -999 -999 -999 -999 -999
2007-01-24 08:44:16 51°13.6 2°56.09 -999 -999 -999 -999 -999
2007-01-24 08:44:21 51°13.6 2°56.09 -999 -999 -999 -999 -999
2007-01-24 08:44:26 51°13.6 2°56.09 -999 -999 -999 -999 -999
2007-01-24 08:44:31 51°13.6 2°56.09 -999 -999 -999 -999 -999
2007-01-24 08:44:36 51°13.6 2°56.09 -999 -999 -999 -999 -999
2007-01-24 08:44:41 51°13.6 2°56.091 -999 -999 -999 -999 -999
2007-01-24 08:44:46 51°13.6 2°56.091 -999 -999 -999 -999 -999
2007-01-24 08:44:51 51°13.6 2°56.091 -999 -999 -999 -999 -999
2007-01-24 08:44:56 51°13.6 2°56.091 -999 -999 -999 -999 -999
2007-01-24 08:45:01 51°13.601 2°56.091 -999 -999 -999 -999 -999
2007-01-24 08:45:06 51°13.601 2°56.091 -999 -999 -999 -999 -999
2007-01-24 08:45:11 51°13.601 2°56.091 -999 -999 -999 -999 -999
2007-01-24 08:45:16 51°13.601 2°56.091 -999 -999 -999 -999 -999
2007-01-24 08:45:21 51°13.601 2°56.092 -999 -999 -999 -999 -999
2007-01-24 08:45:26 51°13.601 2°56.092 -999 -999 -999 -999 -999
2007-01-24 08:45:31 51°13.601 2°56.092 -999 -999 -999 -999 -999
2007-01-24 08:45:36 51°13.601 2°56.092 -999 -999 -999 -999 -999
2007-01-24 08:45:41 51°13.6 2°56.091 -999 -999 -999 -999 -999
2007-01-24 08:45:46 51°13.6 2°56.091 -999 -999 -999 -999 -999
2007-01-24 08:45:51 51°13.6 2°56.091 -999 -999 -999 -999 -999
2007-01-24 08:45:56 51°13.6 2°56.091 -999 -999 -999 -999 -999
2007-01-24 08:46:01 51°13.599 2°56.091 -999 -999 -999 -999 -999
2007-01-24 08:46:06 51°13.6 2°56.091 -999 -999 -999 -999 -999
2007-01-24 08:46:11 51°13.599 2°56.091 -999 -999 -999 -999 -999
2007-01-24 08:46:16 51°13.599 2°56.091 -999 -999 -999 -999 -999
2007-01-24 08:46:21 51°13.599 2°56.091 -999 -999 -999 -999 -999
2007-01-24 08:46:26 51°13.599 2°56.091 -999 -999 -999 -999 -999
2007-01-24 08:46:31 51°13.599 2°56.091 -999 -999 -999 -999 -999
2007-01-24 08:46:36 51°13.599 2°56.091 -999 -999 -999 -999 -999
2007-01-24 08:46:41 51°13.599 2°56.091 -999 -999 -999 -999 -999
2007-01-24 08:46:46 51°13.599 2°56.091 -999 -999 -999 -999 -999
2007-01-24 08:46:51 51°13.599 2°56.091 -999 -999 -999 -999 -999
2007-01-24 08:46:56 51°13.599 2°56.091 -999 -999 -999 -999 -999
2007-01-24 08:47:01 51°13.6 2°56.091 -999 -999 -999 -999 -999
2007-01-24 08:47:06 51°13.6 2°56.091 -999 -999 -999 -999 -999
2007-01-24 08:47:11 51°13.599 2°56.091 -999 -999 -999 -999 -999
2007-01-24 08:47:16 51°13.599 2°56.091 -999 -999 -999 -999 -999
2007-01-24 08:47:21 51°13.599 2°56.091 -999 -999 -999 -999 -999
2007-01-24 08:47:26 51°13.599 2°56.091 -999 -999 -999 -999 -999
2007-01-24 08:47:31 51°13.599 2°56.091 -999 -999 -999 -999 -999
2007-01-24 08:47:36 51°13.6 2°56.091 -999 -999 -999 -999 -999
2007-01-24 08:47:41 51°13.6 2°56.091 -999 -999 -999 -999 -999
2007-01-24 08:47:46 51°13.6 2°56.092 -999 -999 -999 -999 -999
2007-01-24 08:47:51 51°13.6 2°56.092 -999 -999 -999 -999 -999
2007-01-24 08:47:56 51°13.6 2°56.092 -999 -999 -999 -999 -999
2007-01-24 08:48:01 51°13.6 2°56.092 -999 -999 -999 -999 -999
2007-01-24 08:48:06 51°13.6 2°56.092 -999 -999 -999 -999 -999
2007-01-24 08:48:11 51°13.6 2°56.092 -999 -999 -999 -999 -999
2007-01-24 08:48:16 51°13.6 2°56.092 -999 -999 -999 -999 -999
2007-01-24 08:48:21 51°13.6 2°56.092 -999 -999 -999 -999 -999
2007-01-24 08:48:26 51°13.6 2°56.092 -999 -999 -999 -999 -999
2007-01-24 08:48:31 51°13.6 2°56.092 -999 -999 -999 -999 -999
2007-01-24 08:48:36 51°13.6 2°56.093 -999 -999 -999 -999 -999
2007-01-24 08:48:41 51°13.6 2°56.093 -999 -999 -999 -999 -999
2007-01-24 08:48:46 51°13.6 2°56.093 -999 -999 -999 -999 -999
2007-01-24 08:48:51 51°13.6 2°56.093 -999 -999 -999 -999 -999
2007-01-24 08:48:56 51°13.6 2°56.093 -999 -999 -999 -999 -999
2007-01-24 08:49:01 51°13.6 2°56.093 -999 -999 -999 -999 -999
2007-01-24 08:49:06 51°13.6 2°56.093 -999 -999 -999 -999 -999
2007-01-24 08:49:11 51°13.6 2°56.092 -999 -999 -999 -999 -999
2007-01-24 08:49:16 51°13.599 2°56.092 -999 -999 -999 -999 -999
2007-01-24 08:49:21 51°13.599 2°56.092 -999 -999 -999 -999 -999
2007-01-24 08:49:26 51°13.599 2°56.092 -999 -999 -999 -999 -999
2007-01-24 08:49:31 51°13.599 2°56.092 -999 -999 -999 -999 -999
2007-01-24 08:49:36 51°13.599 2°56.092 -999 -999 -999 -999 -999
2007-01-24 08:49:41 51°13.599 2°56.092 -999 -999 -999 -999 -999
2007-01-24 08:49:46 51°13.599 2°56.092 -999 -999 -999 -999 -999
2007-01-24 08:49:51 51°13.599 2°56.092 -999 -999 -999 -999 -999
2007-01-24 08:49:56 51°13.599 2°56.092 -999 -999 -999 -999 -999
2007-01-24 08:50:01 51°13.599 2°56.092 -999 -999 -999 -999 -999
2007-01-24 08:50:06 51°13.599 2°56.092 -999 -999 -999 -999 -999
2007-01-24 08:50:11 51°13.599 2°56.092 -999 -999 -999 -999 -999
2007-01-24 08:50:16 51°13.599 2°56.092 -999 -999 -999 -999 -999
2007-01-24 08:50:21 51°13.599 2°56.092 -999 -999 -999 -999 -999
2007-01-24 08:50:26 51°13.599 2°56.092 -999 -999 -999 -999 -999
2007-01-24 08:50:31 51°13.599 2°56.092 -999 -999 -999 -999 -999
2007-01-24 08:50:36 51°13.599 2°56.093 -999 -999 -999 -999 -999
2007-01-24 08:50:41 51°13.599 2°56.093 -999 -999 -999 -999 -999
2007-01-24 08:50:46 51°13.599 2°56.093 -999 -999 -999 -999 -999
2007-01-24 08:50:51 51°13.599 2°56.093 -999 -999 -999 -999 -999
2007-01-24 08:50:56 51°13.599 2°56.093 -999 -999 -999 -999 -999
2007-01-24 08:51:01 51°13.599 2°56.093 -999 -999 -999 -999 -999
2007-01-24 08:51:06 51°13.599 2°56.093 -999 -999 -999 -999 -999
2007-01-24 08:51:11 51°13.599 2°56.092 -999 -999 -999 -999 -999
2007-01-24 08:51:16 51°13.599 2°56.093 -999 -999 -999 -999 -999
2007-01-24 08:51:21 51°13.599 2°56.093 -999 -999 -999 -999 -999
2007-01-24 08:51:26 51°13.599 2°56.093 -999 -999 -999 -999 -999
2007-01-24 08:51:31 51°13.599 2°56.093 -999 -999 -999 -999 -999
2007-01-24 08:51:36 51°13.599 2°56.093 -999 -999 -999 -999 -999
2007-01-24 08:51:41 51°13.599 2°56.093 -999 -999 -999 -999 -999
2007-01-24 08:51:46 51°13.599 2°56.093 -999 -999 -999 -999 -999
2007-01-24 08:51:51 51°13.599 2°56.093 -999 -999 -999 -999 -999
2007-01-24 08:51:56 51°13.599 2°56.093 -999 -999 -999 -999 -999
2007-01-24 08:52:01 51°13.599 2°56.093 -999 -999 -999 -999 -999
2007-01-24 08:52:06 51°13.599 2°56.093 -999 -999 -999 -999 -999
2007-01-24 08:52:11 51°13.599 2°56.093 -999 -999 -999 -999 -999
2007-01-24 08:52:16 51°13.599 2°56.093 -999 -999 -999 -999 -999
2007-01-24 08:52:21 51°13.599 2°56.093 -999 -999 -999 -999 -999
2007-01-24 08:52:26 51°13.599 2°56.093 -999 -999 -999 -999 -999
2007-01-24 08:52:31 51°13.599 2°56.092 -999 -999 -999 -999 -999
2007-01-24 08:52:36 51°13.599 2°56.092 -999 -999 -999 -999 -999
2007-01-24 08:52:41 51°13.599 2°56.092 -999 -999 -999 -999 -999
2007-01-24 08:52:46 51°13.599 2°56.091 -999 -999 -999 -999 -999
2007-01-24 08:52:51 51°13.599 2°56.092 -999 -999 -999 -999 -999
2007-01-24 08:52:56 51°13.599 2°56.092 -999 -999 -999 -999 -999
2007-01-24 08:53:01 51°13.598 2°56.092 -999 -999 -999 -999 -999
2007-01-24 08:53:06 51°13.598 2°56.092 -999 -999 -999 -999 -999
2007-01-24 08:53:11 51°13.598 2°56.092 -999 -999 -999 -999 -999
2007-01-24 08:53:16 51°13.598 2°56.092 -999 -999 -999 -999 -999
2007-01-24 08:53:21 51°13.598 2°56.092 -999 -999 -999 -999 -999
2007-01-24 08:53:26 51°13.598 2°56.092 -999 -999 -999 -999 -999
2007-01-24 08:53:31 51°13.598 2°56.092 -999 -999 -999 -999 -999
2007-01-24 08:53:36 51°13.598 2°56.092 -999 -999 -999 -999 -999
2007-01-24 08:53:41 51°13.598 2°56.093 -999 -999 -999 -999 -999
2007-01-24 08:53:46 51°13.598 2°56.093 -999 -999 -999 -999 -999
2007-01-24 08:53:51 51°13.597 2°56.094 -999 -999 -999 -999 -999
2007-01-24 08:53:56 51°13.598 2°56.094 -999 -999 -999 -999 -999
2007-01-24 08:54:01 51°13.598 2°56.094 -999 -999 -999 -999 -999
2007-01-24 08:54:06 51°13.598 2°56.094 -999 -999 -999 -999 -999
2007-01-24 08:54:11 51°13.598 2°56.094 -999 -999 -999 -999 -999
2007-01-24 08:54:16 51°13.598 2°56.094 -999 -999 -999 -999 -999
2007-01-24 08:54:21 51°13.598 2°56.094 -999 -999 -999 -999 -999
2007-01-24 08:54:26 51°13.598 2°56.094 -999 -999 -999 -999 -999
2007-01-24 08:54:31 51°13.598 2°56.094 -999 -999 -999 -999 -999
2007-01-24 08:54:36 51°13.598 2°56.094 -999 -999 -999 -999 -999
2007-01-24 08:54:41 51°13.598 2°56.094 -999 -999 -999 -999 -999
2007-01-24 08:54:46 51°13.598 2°56.094 -999 -999 -999 -999 -999
2007-01-24 08:54:51 51°13.598 2°56.094 -999 -999 -999 -999 -999
2007-01-24 08:54:56 51°13.598 2°56.094 -999 -999 -999 -999 -999
2007-01-24 08:55:01 51°13.598 2°56.094 -999 -999 -999 -999 -999
2007-01-24 08:55:06 51°13.598 2°56.094 -999 -999 -999 -999 -999
2007-01-24 08:55:11 51°13.598 2°56.094 -999 -999 -999 -999 -999
2007-01-24 08:55:16 51°13.598 2°56.094 -999 -999 -999 -999 -999
2007-01-24 08:55:21 51°13.598 2°56.094 -999 -999 -999 -999 -999
2007-01-24 08:55:26 51°13.598 2°56.094 -999 -999 -999 -999 -999
2007-01-24 08:55:31 51°13.598 2°56.094 -999 -999 -999 -999 -999
2007-01-24 08:55:36 51°13.597 2°56.094 -999 -999 -999 -999 -999
2007-01-24 08:55:41 51°13.597 2°56.094 -999 -999 -999 -999 -999
2007-01-24 08:55:46 51°13.597 2°56.094 -999 -999 -999 -999 -999
2007-01-24 08:55:51 51°13.597 2°56.094 -999 -999 -999 -999 -999
2007-01-24 08:55:56 51°13.597 2°56.093 -999 -999 -999 -999 -999
2007-01-24 08:56:01 51°13.597 2°56.092 -999 -999 -999 -999 -999
2007-01-24 08:56:06 51°13.598 2°56.091 -999 -999 -999 -999 -999
2007-01-24 08:56:11 51°13.598 2°56.09 -999 -999 -999 -999 -999
2007-01-24 08:56:16 51°13.598 2°56.089 -999 -999 -999 -999 -999
2007-01-24 08:56:21 51°13.599 2°56.087 -999 -999 -999 -999 -999
2007-01-24 08:56:26 51°13.599 2°56.084 -999 -999 -999 -999 -999
2007-01-24 08:56:31 51°13.6 2°56.081 -999 -999 -999 -999 -999
2007-01-24 08:56:36 51°13.601 2°56.077 -999 -999 -999 -999 -999
2007-01-24 08:56:41 51°13.603 2°56.072 -999 -999 -999 -999 -999
2007-01-24 08:56:46 51°13.604 2°56.066 -999 -999 -999 -999 -999
2007-01-24 08:56:51 51°13.606 2°56.06 -999 -999 -999 -999 -999
2007-01-24 08:56:56 51°13.609 2°56.053 -999 -999 -999 -999 -999
2007-01-24 08:57:01 51°13.611 2°56.045 -999 -999 -999 -999 -999
2007-01-24 08:57:06 51°13.613 2°56.037 -999 -999 -999 -999 -999
2007-01-24 08:57:11 51°13.616 2°56.03 -999 -999 -999 -999 -999
2007-01-24 08:57:16 51°13.618 2°56.022 -999 -999 -999 -999 -999
2007-01-24 08:57:22 51°13.621 2°56.013 -999 -999 -999 -999 -999
2007-01-24 08:57:26 51°13.623 2°56.006 -999 -999 -999 -999 -999
2007-01-24 08:57:32 51°13.627 2°55.995 -999 -999 -999 -999 -999
2007-01-24 08:57:36 51°13.629 2°55.988 -999 -999 -999 -999 -999
2007-01-24 08:57:41 51°13.632 2°55.979 -999 -999 -999 -999 -999
2007-01-24 08:57:46 51°13.635 2°55.969 -999 -999 -999 -999 -999
2007-01-24 08:57:51 51°13.638 2°55.96 -999 -999 -999 -999 -999
2007-01-24 08:57:56 51°13.641 2°55.951 -999 -999 -999 -999 -999
2007-01-24 08:58:01 51°13.644 2°55.942 -999 -999 -999 -999 -999
2007-01-24 08:58:06 51°13.647 2°55.933 -999 -999 -999 -999 -999
2007-01-24 08:58:11 51°13.65 2°55.924 -999 -999 -999 -999 -999
2007-01-24 08:58:17 51°13.654 2°55.914 -999 -999 -999 -999 -999
2007-01-24 08:58:21 51°13.656 2°55.906 -999 -999 -999 -999 -999
2007-01-24 08:58:26 51°13.659 2°55.898 -999 -999 -999 -999 -999
2007-01-24 08:58:31 51°13.663 2°55.889 -999 -999 -999 -999 -999
2007-01-24 08:58:37 51°13.666 2°55.878 -999 -999 -999 -999 -999
2007-01-24 08:58:42 51°13.669 2°55.869 -999 -999 -999 -999 -999
2007-01-24 08:58:46 51°13.671 2°55.862 -999 -999 -999 -999 -999
2007-01-24 08:58:51 51°13.674 2°55.854 -999 -999 -999 -999 -999
2007-01-24 08:58:56 51°13.677 2°55.846 -999 -999 -999 -999 -999
2007-01-24 08:59:01 51°13.679 2°55.838 -999 -999 -999 -999 -999
2007-01-24 08:59:06 51°13.682 2°55.83 -999 -999 -999 -999 -999
2007-01-24 08:59:11 51°13.684 2°55.822 -999 -999 -999 -999 -999
2007-01-24 08:59:16 51°13.686 2°55.814 -999 -999 -999 -999 -999
2007-01-24 08:59:21 51°13.688 2°55.807 -999 -999 -999 -999 -999
2007-01-24 08:59:26 51°13.69 2°55.8 -999 -999 -999 -999 -999
2007-01-24 08:59:31 51°13.691 2°55.793 -999 -999 -999 -999 -999
2007-01-24 08:59:36 51°13.693 2°55.786 -999 -999 -999 -999 -999
2007-01-24 08:59:41 51°13.695 2°55.779 -999 -999 -999 -999 -999
2007-01-24 08:59:46 51°13.696 2°55.773 -999 -999 -999 -999 -999
2007-01-24 08:59:51 51°13.697 2°55.767 -999 -999 -999 -999 -999
2007-01-24 08:59:56 51°13.698 2°55.761 -999 -999 -999 -999 -999
2007-01-24 09:00:01 51°13.699 2°55.756 -999 -999 -999 -999 -999
2007-01-24 09:00:06 51°13.7 2°55.751 -999 -999 -999 -999 -999
2007-01-24 09:00:11 51°13.701 2°55.747 -999 -999 -999 -999 -999
2007-01-24 09:00:16 51°13.702 2°55.744 -999 -999 -999 -999 -999
2007-01-24 09:00:21 51°13.702 2°55.742 -999 -999 -999 -999 -999
2007-01-24 09:00:26 51°13.703 2°55.741 -999 -999 -999 -999 -999
2007-01-24 09:00:31 51°13.703 2°55.741 -999 -999 -999 -999 -999
2007-01-24 09:00:36 51°13.704 2°55.741 -999 -999 -999 -999 -999
2007-01-24 09:00:41 51°13.705 2°55.743 -999 -999 -999 -999 -999
2007-01-24 09:00:46 51°13.706 2°55.744 -999 -999 -999 -999 -999
2007-01-24 09:00:51 51°13.706 2°55.745 -999 -999 -999 -999 -999
2007-01-24 09:00:56 51°13.707 2°55.745 -999 -999 -999 -999 -999
2007-01-24 09:01:01 51°13.708 2°55.746 -999 -999 -999 -999 -999
2007-01-24 09:01:06 51°13.708 2°55.746 -999 -999 -999 -999 -999
2007-01-24 09:01:11 51°13.709 2°55.746 -999 -999 -999 -999 -999
2007-01-24 09:01:16 51°13.709 2°55.745 -999 -999 -999 -999 -999
2007-01-24 09:01:21 51°13.709 2°55.744 -999 -999 -999 -999 -999
2007-01-24 09:01:26 51°13.708 2°55.742 -999 -999 -999 -999 -999
2007-01-24 09:01:31 51°13.708 2°55.741 -999 -999 -999 -999 -999
2007-01-24 09:01:36 51°13.708 2°55.739 -999 -999 -999 -999 -999
2007-01-24 09:01:41 51°13.707 2°55.738 -999 -999 -999 -999 -999
2007-01-24 09:01:46 51°13.707 2°55.737 -999 -999 -999 -999 -999
2007-01-24 09:01:51 51°13.707 2°55.736 -999 -999 -999 -999 -999
2007-01-24 09:01:56 51°13.707 2°55.734 -999 -999 -999 -999 -999
2007-01-24 09:02:01 51°13.707 2°55.734 -999 -999 -999 -999 -999
2007-01-24 09:02:06 51°13.707 2°55.734 -999 -999 -999 -999 -999
2007-01-24 09:02:11 51°13.708 2°55.734 -999 -999 -999 -999 -999
2007-01-24 09:02:16 51°13.709 2°55.734 -999 -999 -999 -999 -999
2007-01-24 09:02:21 51°13.711 2°55.734 -999 -999 -999 -999 -999
2007-01-24 09:02:26 51°13.713 2°55.735 -999 -999 -999 -999 -999
2007-01-24 09:02:31 51°13.715 2°55.735 -999 -999 -999 -999 -999
2007-01-24 09:02:36 51°13.718 2°55.735 -999 -999 -999 -999 -999
2007-01-24 09:02:41 51°13.721 2°55.735 -999 -999 -999 -999 -999
2007-01-24 09:02:46 51°13.723 2°55.734 -999 -999 -999 -999 -999
2007-01-24 09:02:51 51°13.726 2°55.734 -999 -999 -999 -999 -999
2007-01-24 09:02:56 51°13.73 2°55.732 -999 -999 -999 -999 -999
2007-01-24 09:03:01 51°13.733 2°55.731 -999 -999 -999 -999 -999
2007-01-24 09:03:06 51°13.736 2°55.729 -999 -999 -999 -999 -999
2007-01-24 09:03:11 51°13.738 2°55.727 -999 -999 -999 -999 -999
2007-01-24 09:03:16 51°13.741 2°55.725 -999 -999 -999 -999 -999
2007-01-24 09:03:21 51°13.744 2°55.722 -999 -999 -999 -999 -999
2007-01-24 09:03:26 51°13.747 2°55.72 -999 -999 -999 -999 -999
2007-01-24 09:03:31 51°13.749 2°55.717 -999 -999 -999 -999 -999
2007-01-24 09:03:36 51°13.752 2°55.715 -999 -999 -999 -999 -999
2007-01-24 09:03:41 51°13.754 2°55.713 -999 -999 -999 -999 -999
2007-01-24 09:03:46 51°13.757 2°55.71 -999 -999 -999 -999 -999
2007-01-24 09:03:51 51°13.76 2°55.708 -999 -999 -999 -999 -999
2007-01-24 09:03:56 51°13.762 2°55.706 -999 -999 -999 -999 -999
2007-01-24 09:04:01 51°13.764 2°55.703 -999 -999 -999 -999 -999
2007-01-24 09:04:06 51°13.767 2°55.701 -999 -999 -999 -999 -999
2007-01-24 09:04:11 51°13.769 2°55.699 -999 -999 -999 -999 -999
2007-01-24 09:04:16 51°13.772 2°55.697 -999 -999 -999 -999 -999
2007-01-24 09:04:21 51°13.774 2°55.695 -999 -999 -999 -999 -999
2007-01-24 09:04:26 51°13.777 2°55.692 -999 -999 -999 -999 -999
2007-01-24 09:04:31 51°13.779 2°55.69 -999 -999 -999 -999 -999
2007-01-24 09:04:36 51°13.782 2°55.688 -999 -999 -999 -999 -999
2007-01-24 09:04:41 51°13.784 2°55.686 -999 -999 -999 -999 -999
2007-01-24 09:04:46 51°13.786 2°55.683 -999 -999 -999 -999 -999
2007-01-24 09:04:51 51°13.789 2°55.681 -999 -999 -999 -999 -999
2007-01-24 09:04:56 51°13.791 2°55.679 -999 -999 -999 -999 -999
2007-01-24 09:05:01 51°13.794 2°55.677 -999 -999 -999 -999 -999
2007-01-24 09:05:06 51°13.796 2°55.675 -999 -999 -999 -999 -999
2007-01-24 09:05:11 51°13.799 2°55.673 -999 -999 -999 -999 -999
2007-01-24 09:05:16 51°13.801 2°55.67 -999 -999 -999 -999 -999
2007-01-24 09:05:21 51°13.803 2°55.668 -999 -999 -999 -999 -999
2007-01-24 09:05:26 51°13.805 2°55.666 -999 -999 -999 -999 -999
2007-01-24 09:05:31 51°13.808 2°55.664 -999 -999 -999 -999 -999
2007-01-24 09:05:36 51°13.81 2°55.661 -999 -999 -999 -999 -999
2007-01-24 09:05:41 51°13.812 2°55.659 -999 -999 -999 -999 -999
2007-01-24 09:05:46 51°13.815 2°55.657 -999 -999 -999 -999 -999
2007-01-24 09:05:51 51°13.817 2°55.655 -999 -999 -999 -999 -999
2007-01-24 09:05:56 51°13.819 2°55.652 -999 -999 -999 -999 -999
2007-01-24 09:06:01 51°13.822 2°55.65 -999 -999 -999 -999 -999
2007-01-24 09:06:06 51°13.824 2°55.648 -999 -999 -999 -999 -999
2007-01-24 09:06:11 51°13.827 2°55.646 -999 -999 -999 -999 -999
2007-01-24 09:06:16 51°13.829 2°55.644 -999 -999 -999 -999 -999
2007-01-24 09:06:21 51°13.831 2°55.642 -999 -999 -999 -999 -999
2007-01-24 09:06:26 51°13.834 2°55.641 -999 -999 -999 -999 -999
2007-01-24 09:06:31 51°13.836 2°55.639 -999 -999 -999 -999 -999
2007-01-24 09:06:36 51°13.838 2°55.637 -999 -999 -999 -999 -999
2007-01-24 09:06:41 51°13.84 2°55.635 -999 -999 -999 -999 -999
2007-01-24 09:06:46 51°13.843 2°55.633 -999 -999 -999 -999 -999
2007-01-24 09:06:51 51°13.845 2°55.631 -999 -999 -999 -999 -999
2007-01-24 09:06:56 51°13.847 2°55.629 -999 -999 -999 -999 -999
2007-01-24 09:07:01 51°13.848 2°55.628 -999 -999 -999 -999 -999
2007-01-24 09:07:06 51°13.85 2°55.626 -999 -999 -999 -999 -999
2007-01-24 09:07:11 51°13.852 2°55.625 -999 -999 -999 -999 -999
2007-01-24 09:07:16 51°13.853 2°55.624 -999 -999 -999 -999 -999
2007-01-24 09:07:21 51°13.854 2°55.623 -999 -999 -999 -999 -999
2007-01-24 09:07:26 51°13.855 2°55.622 -999 -999 -999 -999 -999
2007-01-24 09:07:31 51°13.856 2°55.622 -999 -999 -999 -999 -999
2007-01-24 09:07:36 51°13.857 2°55.621 -999 -999 -999 -999 -999
2007-01-24 09:07:41 51°13.857 2°55.621 -999 -999 -999 -999 -999
2007-01-24 09:07:46 51°13.858 2°55.62 -999 -999 -999 -999 -999
2007-01-24 09:07:51 51°13.859 2°55.62 -999 -999 -999 -999 -999
2007-01-24 09:07:56 51°13.86 2°55.62 -999 -999 -999 -999 -999
2007-01-24 09:08:01 51°13.861 2°55.619 -999 -999 -999 -999 -999
2007-01-24 09:08:06 51°13.862 2°55.618 -999 -999 -999 -999 -999
2007-01-24 09:08:11 51°13.863 2°55.618 -999 -999 -999 -999 -999
2007-01-24 09:08:16 51°13.863 2°55.617 -999 -999 -999 -999 -999
2007-01-24 09:08:21 51°13.864 2°55.616 -999 -999 -999 -999 -999
2007-01-24 09:08:26 51°13.864 2°55.616 -999 -999 -999 -999 -999
2007-01-24 09:08:31 51°13.865 2°55.615 -999 -999 -999 -999 -999
2007-01-24 09:08:36 51°13.866 2°55.615 -999 -999 -999 -999 -999
2007-01-24 09:08:41 51°13.867 2°55.614 -999 -999 -999 -999 -999
2007-01-24 09:08:46 51°13.868 2°55.614 -999 -999 -999 -999 -999
2007-01-24 09:08:51 51°13.869 2°55.614 -999 -999 -999 -999 -999
2007-01-24 09:08:56 51°13.87 2°55.613 -999 -999 -999 -999 -999
2007-01-24 09:09:01 51°13.871 2°55.613 -999 -999 -999 -999 -999
2007-01-24 09:09:06 51°13.872 2°55.612 -999 -999 -999 -999 -999
2007-01-24 09:09:11 51°13.873 2°55.611 -999 -999 -999 -999 -999
2007-01-24 09:09:16 51°13.874 2°55.611 -999 -999 -999 -999 -999
2007-01-24 09:09:21 51°13.875 2°55.61 -999 -999 -999 -999 -999
2007-01-24 09:09:26 51°13.876 2°55.61 -999 -999 -999 -999 -999
2007-01-24 09:09:31 51°13.877 2°55.609 -999 -999 -999 -999 -999
2007-01-24 09:09:36 51°13.878 2°55.608 -999 -999 -999 -999 -999
2007-01-24 09:09:41 51°13.879 2°55.608 -999 -999 -999 -999 -999
2007-01-24 09:09:46 51°13.881 2°55.607 -999 -999 -999 -999 -999
2007-01-24 09:09:51 51°13.882 2°55.607 -999 -999 -999 -999 -999
2007-01-24 09:09:56 51°13.883 2°55.606 -999 -999 -999 -999 -999
2007-01-24 09:10:01 51°13.884 2°55.605 -999 -999 -999 -999 -999
2007-01-24 09:10:06 51°13.885 2°55.605 -999 -999 -999 -999 -999
2007-01-24 09:10:11 51°13.886 2°55.604 -999 -999 -999 -999 -999
2007-01-24 09:10:16 51°13.886 2°55.604 -999 -999 -999 -999 -999
2007-01-24 09:10:21 51°13.886 2°55.604 -999 -999 -999 -999 -999
2007-01-24 09:10:26 51°13.886 2°55.604 -999 -999 -999 -999 -999
2007-01-24 09:10:31 51°13.886 2°55.604 -999 -999 -999 -999 -999
2007-01-24 09:10:36 51°13.886 2°55.604 -999 -999 -999 -999 -999
2007-01-24 09:10:41 51°13.886 2°55.604 -999 -999 -999 -999 -999
2007-01-24 09:10:46 51°13.886 2°55.604 -999 -999 -999 -999 -999
2007-01-24 09:10:51 51°13.887 2°55.604 -999 -999 -999 -999 -999
2007-01-24 09:10:56 51°13.887 2°55.604 -999 -999 -999 -999 -999
2007-01-24 09:11:01 51°13.888 2°55.604 -999 -999 -999 -999 -999
2007-01-24 09:11:06 51°13.888 2°55.603 -999 -999 -999 -999 -999
2007-01-24 09:11:11 51°13.889 2°55.603 -999 -999 -999 -999 -999
2007-01-24 09:11:16 51°13.889 2°55.603 -999 -999 -999 -999 -999
2007-01-24 09:11:21 51°13.89 2°55.602 -999 -999 -999 -999 -999
2007-01-24 09:11:26 51°13.891 2°55.602 -999 -999 -999 -999 -999
2007-01-24 09:11:31 51°13.892 2°55.602 -999 -999 -999 -999 -999
2007-01-24 09:11:36 51°13.893 2°55.601 -999 -999 -999 -999 -999
2007-01-24 09:11:41 51°13.894 2°55.601 -999 -999 -999 -999 -999
2007-01-24 09:11:46 51°13.895 2°55.6 -999 -999 -999 -999 -999
2007-01-24 09:11:51 51°13.896 2°55.599 -999 -999 -999 -999 -999
2007-01-24 09:11:56 51°13.898 2°55.598 -999 -999 -999 -999 -999
2007-01-24 09:12:01 51°13.899 2°55.598 -999 -999 -999 -999 -999
2007-01-24 09:12:06 51°13.901 2°55.596 -999 -999 -999 -999 -999
2007-01-24 09:12:11 51°13.902 2°55.596 -999 -999 -999 -999 -999
2007-01-24 09:12:16 51°13.904 2°55.594 -999 -999 -999 -999 -999
2007-01-24 09:12:21 51°13.906 2°55.593 -999 -999 -999 -999 -999
2007-01-24 09:12:26 51°13.908 2°55.592 -999 -999 -999 -999 -999
2007-01-24 09:12:31 51°13.911 2°55.59 -999 -999 -999 -999 -999
2007-01-24 09:12:36 51°13.913 2°55.588 -999 -999 -999 -999 -999
2007-01-24 09:12:41 51°13.916 2°55.586 -999 -999 -999 -999 -999
2007-01-24 09:12:46 51°13.918 2°55.584 -999 -999 -999 -999 -999
2007-01-24 09:12:51 51°13.92 2°55.582 -999 -999 -999 -999 -999
2007-01-24 09:12:56 51°13.923 2°55.58 -999 -999 -999 -999 -999
2007-01-24 09:13:01 51°13.925 2°55.579 -999 -999 -999 -999 -999
2007-01-24 09:13:06 51°13.926 2°55.577 -999 -999 -999 -999 -999
2007-01-24 09:13:11 51°13.928 2°55.575 -999 -999 -999 -999 -999
2007-01-24 09:13:16 51°13.93 2°55.574 -999 -999 -999 -999 -999
2007-01-24 09:13:21 51°13.932 2°55.573 -999 -999 -999 -999 -999
2007-01-24 09:13:26 51°13.933 2°55.571 -999 -999 -999 -999 -999
2007-01-24 09:13:31 51°13.935 2°55.57 -999 -999 -999 -999 -999
2007-01-24 09:13:36 51°13.937 2°55.569 -999 -999 -999 -999 -999
2007-01-24 09:13:41 51°13.938 2°55.567 -999 -999 -999 -999 -999
2007-01-24 09:13:46 51°13.94 2°55.566 -999 -999 -999 -999 -999
2007-01-24 09:13:51 51°13.942 2°55.565 -999 -999 -999 -999 -999
2007-01-24 09:13:56 51°13.944 2°55.564 -999 -999 -999 -999 -999
2007-01-24 09:14:01 51°13.945 2°55.563 -999 -999 -999 -999 -999
2007-01-24 09:14:06 51°13.947 2°55.562 -999 -999 -999 -999 -999
2007-01-24 09:14:11 51°13.948 2°55.56 -999 -999 -999 -999 -999
2007-01-24 09:14:16 51°13.95 2°55.559 -999 -999 -999 -999 -999
2007-01-24 09:14:21 51°13.951 2°55.558 -999 -999 -999 -999 -999
2007-01-24 09:14:26 51°13.953 2°55.557 -999 -999 -999 -999 -999
2007-01-24 09:14:31 51°13.954 2°55.556 -999 -999 -999 -999 -999
2007-01-24 09:14:36 51°13.956 2°55.555 -999 -999 -999 -999 -999
2007-01-24 09:14:41 51°13.957 2°55.554 -999 -999 -999 -999 -999
2007-01-24 09:14:46 51°13.959 2°55.553 -999 -999 -999 -999 -999
2007-01-24 09:14:51 51°13.96 2°55.552 -999 -999 -999 -999 -999
2007-01-24 09:14:56 51°13.962 2°55.551 -999 -999 -999 -999 -999
2007-01-24 09:15:01 51°13.963 2°55.55 -999 -999 -999 -999 -999
2007-01-24 09:15:06 51°13.964 2°55.549 -999 -999 -999 -999 -999
2007-01-24 09:15:11 51°13.966 2°55.548 -999 -999 -999 -999 -999
2007-01-24 09:15:16 51°13.967 2°55.547 -999 -999 -999 -999 -999
2007-01-24 09:15:21 51°13.968 2°55.547 -999 -999 -999 -999 -999
2007-01-24 09:15:26 51°13.97 2°55.545 -999 -999 -999 -999 -999
2007-01-24 09:15:31 51°13.972 2°55.544 -999 -999 -999 -999 -999
2007-01-24 09:15:36 51°13.974 2°55.542 -999 -999 -999 -999 -999
2007-01-24 09:15:41 51°13.977 2°55.541 -999 -999 -999 -999 -999
2007-01-24 09:15:46 51°13.98 2°55.538 -999 -999 -999 -999 -999
2007-01-24 09:15:51 51°13.984 2°55.536 -999 -999 -999 -999 -999
2007-01-24 09:15:56 51°13.989 2°55.532 -999 -999 -999 -999 -999
2007-01-24 09:16:01 51°13.994 2°55.528 -999 -999 -999 -999 -999
2007-01-24 09:16:06 51°13.999 2°55.524 -999 -999 -999 -999 -999
2007-01-24 09:16:11 51°14.005 2°55.519 -999 -999 -999 -999 -999
2007-01-24 09:16:16 51°14.012 2°55.514 -999 -999 -999 -999 -999
2007-01-24 09:16:21 51°14.019 2°55.509 -999 -999 -999 -999 -999
2007-01-24 09:16:26 51°14.026 2°55.503 -999 -999 -999 -999 -999
2007-01-24 09:16:31 51°14.034 2°55.497 -999 -999 -999 -999 -999
2007-01-24 09:16:36 51°14.042 2°55.49 -999 -999 -999 -999 -999
2007-01-24 09:16:41 51°14.051 2°55.482 -999 -999 -999 -999 -999
2007-01-24 09:16:46 51°14.06 2°55.475 -999 -999 -999 -999 -999
2007-01-24 09:16:51 51°14.07 2°55.467 -999 -999 -999 -999 -999
2007-01-24 09:16:56 51°14.08 2°55.459 -999 -999 -999 -999 -999
2007-01-24 09:17:01 51°14.091 2°55.451 -999 -999 -999 -999 -999
2007-01-24 09:17:06 51°14.102 2°55.442 -999 -999 -999 -999 -999
2007-01-24 09:17:11 51°14.113 2°55.432 -999 -999 -999 -999 -999
2007-01-24 09:17:16 51°14.124 2°55.422 -999 -999 -999 -999 -999
2007-01-24 09:17:21 51°14.136 2°55.412 -999 -999 -999 -999 -999
2007-01-24 09:17:26 51°14.148 2°55.402 -999 -999 -999 -999 -999
2007-01-24 09:17:31 51°14.16 2°55.391 -999 -999 -999 -999 -999
2007-01-24 09:17:36 51°14.172 2°55.38 -999 -999 -999 -999 -999
2007-01-24 09:17:41 51°14.184 2°55.368 -999 -999 -999 -999 -999
2007-01-24 09:17:46 51°14.196 2°55.356 -999 -999 -999 -999 -999
2007-01-24 09:17:51 51°14.207 2°55.344 -999 -999 -999 -999 -999
2007-01-24 09:17:56 51°14.219 2°55.33 -999 -999 -999 -999 -999
2007-01-24 09:18:01 51°14.23 2°55.316 -999 -999 -999 -999 -999
2007-01-24 09:18:06 51°14.241 2°55.301 -999 -999 -999 -999 -999
2007-01-24 09:18:11 51°14.251 2°55.285 -999 -999 -999 -999 -999
2007-01-24 09:18:16 51°14.262 2°55.269 -999 -999 -999 -999 -999
2007-01-24 09:18:21 51°14.272 2°55.252 -999 -999 -999 -999 -999
2007-01-24 09:18:26 51°14.282 2°55.235 -999 -999 -999 -999 -999
2007-01-24 09:18:31 51°14.291 2°55.216 -999 -999 -999 -999 -999
2007-01-24 09:18:36 51°14.3 2°55.198 -999 -999 -999 -999 -999
2007-01-24 09:18:41 51°14.309 2°55.179 -999 -999 -999 -999 -999
2007-01-24 09:18:46 51°14.319 2°55.159 -999 -999 -999 -999 -999
2007-01-24 09:18:51 51°14.328 2°55.14 -999 -999 -999 -999 -999
2007-01-24 09:18:56 51°14.338 2°55.121 -999 -999 -999 -999 -999
2007-01-24 09:19:01 51°14.348 2°55.101 -999 -999 -999 -999 -999
2007-01-24 09:19:06 51°14.358 2°55.081 -999 -999 -999 -999 -999
2007-01-24 09:19:11 51°14.368 2°55.061 -999 -999 -999 -999 -999
2007-01-24 09:19:16 51°14.378 2°55.041 -999 -999 -999 -999 -999
2007-01-24 09:19:21 51°14.388 2°55.02 -999 -999 -999 -999 -999
2007-01-24 09:19:26 51°14.398 2°54.999 -999 -999 -999 -999 -999
2007-01-24 09:19:31 51°14.407 2°54.978 -999 -999 -999 -999 -999
2007-01-24 09:19:36 51°14.415 2°54.955 -999 -999 -999 -999 -999
2007-01-24 09:19:41 51°14.423 2°54.932 -999 -999 -999 -999 -999
2007-01-24 09:19:46 51°14.43 2°54.907 -999 -999 -999 -999 -999
2007-01-24 09:19:51 51°14.435 2°54.881 -999 -999 -999 -999 -999
2007-01-24 09:19:56 51°14.44 2°54.855 -999 -999 -999 -999 -999
2007-01-24 09:20:01 51°14.444 2°54.829 -999 -999 -999 -999 -999
2007-01-24 09:20:06 51°14.447 2°54.801 -999 -999 -999 -999 -999
2007-01-24 09:20:11 51°14.449 2°54.774 -999 -999 -999 -999 -999
2007-01-24 09:20:16 51°14.45 2°54.747 -999 -999 -999 -999 -999
2007-01-24 09:20:21 51°14.451 2°54.719 -999 -999 -999 -999 -999
2007-01-24 09:20:26 51°14.451 2°54.691 -999 -999 -999 -999 -999
2007-01-24 09:20:31 51°14.45 2°54.663 -999 -999 -999 -999 -999
2007-01-24 09:20:36 51°14.449 2°54.635 -999 -999 -999 -999 -999
2007-01-24 09:20:41 51°14.446 2°54.607 -999 -999 -999 -999 -999
2007-01-24 09:20:46 51°14.443 2°54.578 -999 -999 -999 -999 -999
2007-01-24 09:20:51 51°14.439 2°54.55 -999 -999 -999 -999 -999
2007-01-24 09:20:56 51°14.435 2°54.523 -999 -999 -999 -999 -999
2007-01-24 09:21:01 51°14.429 2°54.495 -999 -999 -999 -999 -999
2007-01-24 09:21:06 51°14.423 2°54.469 -999 -999 -999 -999 -999
2007-01-24 09:21:11 51°14.416 2°54.442 -999 -999 -999 -999 -999
2007-01-24 09:21:16 51°14.409 2°54.416 -999 -999 -999 -999 -999
2007-01-24 09:21:21 51°14.401 2°54.39 -999 -999 -999 -999 -999
2007-01-24 09:21:26 51°14.393 2°54.364 -999 -999 -999 -999 -999
2007-01-24 09:21:31 51°14.385 2°54.338 -999 -999 -999 -999 -999
2007-01-24 09:21:36 51°14.377 2°54.313 -999 -999 -999 -999 -999
2007-01-24 09:21:41 51°14.369 2°54.287 -999 -999 -999 -999 -999
2007-01-24 09:21:46 51°14.36 2°54.262 -999 -999 -999 -999 -999
2007-01-24 09:21:51 51°14.352 2°54.236 -999 -999 -999 -999 -999
2007-01-24 09:21:56 51°14.343 2°54.211 -999 -999 -999 -999 -999
2007-01-24 09:22:01 51°14.334 2°54.185 -999 -999 -999 -999 -999
2007-01-24 09:22:06 51°14.325 2°54.161 -999 -999 -999 -999 -999
2007-01-24 09:22:11 51°14.316 2°54.136 -999 -999 -999 -999 -999
2007-01-24 09:22:17 51°14.305 2°54.105 -999 -999 -999 -999 -999
2007-01-24 09:22:22 51°14.295 2°54.08 -999 -999 -999 -999 -999
2007-01-24 09:22:27 51°14.286 2°54.055 -999 -999 -999 -999 -999
2007-01-24 09:22:32 51°14.277 2°54.03 -999 -999 -999 -999 -999
2007-01-24 09:22:37 51°14.268 2°54.005 -999 -999 -999 -999 -999
2007-01-24 09:22:42 51°14.259 2°53.979 -999 -999 -999 -999 -999
2007-01-24 09:22:47 51°14.249 2°53.954 -999 -999 -999 -999 -999
2007-01-24 09:22:52 51°14.24 2°53.929 -999 -999 -999 -999 -999
2007-01-24 09:22:57 51°14.231 2°53.904 -999 -999 -999 -999 -999
2007-01-24 09:23:02 51°14.222 2°53.878 -999 -999 -999 -999 -999
2007-01-24 09:23:07 51°14.212 2°53.853 -999 -999 -999 -999 -999
2007-01-24 09:23:12 51°14.203 2°53.827 -999 -999 -999 -999 -999
2007-01-24 09:23:17 51°14.194 2°53.802 -999 -999 -999 -999 -999
2007-01-24 09:23:22 51°14.185 2°53.776 -999 -999 -999 -999 -999
2007-01-24 09:23:27 51°14.175 2°53.751 -999 -999 -999 -999 -999
2007-01-24 09:23:32 51°14.166 2°53.725 -999 -999 -999 -999 -999
2007-01-24 09:23:36 51°14.159 2°53.705 -999 -999 -999 -999 -999
2007-01-24 09:23:41 51°14.15 2°53.679 -999 -999 -999 -999 -999
2007-01-24 09:23:47 51°14.139 2°53.649 -999 -999 -999 -999 -999
2007-01-24 09:23:52 51°14.129 2°53.624 -999 -999 -999 -999 -999
2007-01-24 09:23:57 51°14.12 2°53.598 -999 -999 -999 -999 -999
2007-01-24 09:24:02 51°14.11 2°53.573 -999 -999 -999 -999 -999
2007-01-24 09:24:07 51°14.101 2°53.548 -999 -999 -999 -999 -999
2007-01-24 09:24:12 51°14.091 2°53.522 -999 -999 -999 -999 -999
2007-01-24 09:24:17 51°14.081 2°53.498 -999 -999 -999 -999 -999
2007-01-24 09:24:22 51°14.072 2°53.472 -999 -999 -999 -999 -999
2007-01-24 09:24:27 51°14.062 2°53.447 -999 -999 -999 -999 -999
2007-01-24 09:24:32 51°14.053 2°53.422 -999 -999 -999 -999 -999
2007-01-24 09:24:37 51°14.043 2°53.397 -999 -999 -999 -999 -999
2007-01-24 09:24:42 51°14.034 2°53.372 -999 -999 -999 -999 -999
2007-01-24 09:24:47 51°14.024 2°53.346 -999 -999 -999 -999 -999
2007-01-24 09:24:52 51°14.015 2°53.321 -999 -999 -999 -999 -999
2007-01-24 09:24:57 51°14.005 2°53.295 -999 -999 -999 -999 -999
2007-01-24 09:25:02 51°13.995 2°53.27 -999 -999 -999 -999 -999
2007-01-24 09:25:06 51°13.988 2°53.249 -999 -999 -999 -999 -999
2007-01-24 09:25:12 51°13.977 2°53.219 -999 -999 -999 -999 -999
2007-01-24 09:25:17 51°13.967 2°53.193 -999 -999 -999 -999 -999
2007-01-24 09:25:22 51°13.957 2°53.168 -999 -999 -999 -999 -999
2007-01-24 09:25:27 51°13.948 2°53.143 -999 -999 -999 -999 -999
2007-01-24 09:25:32 51°13.938 2°53.118 -999 -999 -999 -999 -999
2007-01-24 09:25:37 51°13.929 2°53.092 -999 -999 -999 -999 -999
2007-01-24 09:25:42 51°13.918 2°53.068 -999 -999 -999 -999 -999
2007-01-24 09:25:47 51°13.91 2°53.041 -999 -999 -999 -999 -999
2007-01-24 09:25:52 51°13.9 2°53.016 -999 -999 -999 -999 -999
2007-01-24 09:25:57 51°13.891 2°52.991 -999 -999 -999 -999 -999
2007-01-24 09:26:02 51°13.881 2°52.965 -999 -999 -999 -999 -999
2007-01-24 09:26:07 51°13.872 2°52.94 -999 -999 -999 -999 -999
2007-01-24 09:26:12 51°13.862 2°52.915 -999 -999 -999 -999 -999
2007-01-24 09:26:17 51°13.853 2°52.889 -999 -999 -999 -999 -999
2007-01-24 09:26:22 51°13.844 2°52.864 -999 -999 -999 -999 -999
2007-01-24 09:26:27 51°13.834 2°52.838 -999 -999 -999 -999 -999
2007-01-24 09:26:32 51°13.825 2°52.812 -999 -999 -999 -999 -999
2007-01-24 09:26:37 51°13.815 2°52.787 -999 -999 -999 -999 -999
2007-01-24 09:26:42 51°13.807 2°52.761 -999 -999 -999 -999 -999
2007-01-24 09:26:47 51°13.797 2°52.737 -999 -999 -999 -999 -999
2007-01-24 09:26:52 51°13.788 2°52.711 -999 -999 -999 -999 -999
2007-01-24 09:26:57 51°13.778 2°52.686 -999 -999 -999 -999 -999
2007-01-24 09:27:02 51°13.769 2°52.66 -999 -999 -999 -999 -999
2007-01-24 09:27:07 51°13.759 2°52.636 -999 -999 -999 -999 -999
2007-01-24 09:27:12 51°13.75 2°52.61 -999 -999 -999 -999 -999
2007-01-24 09:27:17 51°13.739 2°52.586 -999 -999 -999 -999 -999
2007-01-24 09:27:22 51°13.731 2°52.559 -999 -999 -999 -999 -999
2007-01-24 09:27:27 51°13.721 2°52.535 -999 -999 -999 -999 -999
2007-01-24 09:27:32 51°13.712 2°52.508 -999 -999 -999 -999 -999
2007-01-24 09:27:37 51°13.701 2°52.482 -999 -999 -999 -999 -999
2007-01-24 09:27:42 51°13.693 2°52.456 -999 -999 -999 -999 -999
2007-01-24 09:27:47 51°13.682 2°52.43 -999 -999 -999 -999 -999
2007-01-24 09:27:52 51°13.674 2°52.402 -999 -999 -999 -999 -999
2007-01-24 09:27:57 51°13.662 2°52.376 -999 -999 -999 -999 -999
2007-01-24 09:28:02 51°13.653 2°52.348 -999 -999 -999 -999 -999
2007-01-24 09:28:07 51°13.643 2°52.321 -999 -999 -999 -999 -999
2007-01-24 09:28:12 51°13.633 2°52.294 -999 -999 -999 -999 -999
2007-01-24 09:28:17 51°13.623 2°52.266 -999 -999 -999 -999 -999
2007-01-24 09:28:22 51°13.613 2°52.238 -999 -999 -999 -999 -999
2007-01-24 09:28:27 51°13.604 2°52.21 -999 -999 -999 -999 -999
2007-01-24 09:28:32 51°13.593 2°52.182 -999 -999 -999 -999 -999
2007-01-24 09:28:37 51°13.584 2°52.154 -999 -999 -999 -999 -999
2007-01-24 09:28:42 51°13.574 2°52.126 -999 -999 -999 -999 -999
2007-01-24 09:28:47 51°13.564 2°52.098 -999 -999 -999 -999 -999
2007-01-24 09:28:52 51°13.553 2°52.07 -999 -999 -999 -999 -999
2007-01-24 09:28:57 51°13.544 2°52.041 -999 -999 -999 -999 -999
2007-01-24 09:29:02 51°13.532 2°52.014 -999 -999 -999 -999 -999
2007-01-24 09:29:07 51°13.523 2°51.985 -999 -999 -999 -999 -999
2007-01-24 09:29:12 51°13.512 2°51.958 -999 -999 -999 -999 -999
2007-01-24 09:29:17 51°13.503 2°51.929 -999 -999 -999 -999 -999
2007-01-24 09:29:22 51°13.492 2°51.901 -999 -999 -999 -999 -999
2007-01-24 09:29:27 51°13.483 2°51.872 -999 -999 -999 -999 -999
2007-01-24 09:29:32 51°13.473 2°51.843 -999 -999 -999 -999 -999
2007-01-24 09:29:37 51°13.463 2°51.815 -999 -999 -999 -999 -999
2007-01-24 09:29:42 51°13.454 2°51.786 -999 -999 -999 -999 -999
2007-01-24 09:29:46 51°13.445 2°51.764 -999 -999 -999 -999 -999
2007-01-24 09:29:52 51°13.434 2°51.729 -999 -999 -999 -999 -999
2007-01-24 09:29:57 51°13.423 2°51.7 -999 -999 -999 -999 -999
2007-01-24 09:30:02 51°13.414 2°51.671 -999 -999 -999 -999 -999
2007-01-24 09:30:07 51°13.403 2°51.643 -999 -999 -999 -999 -999
2007-01-24 09:30:12 51°13.394 2°51.613 -999 -999 -999 -999 -999
2007-01-24 09:30:17 51°13.383 2°51.586 -999 -999 -999 -999 -999
2007-01-24 09:30:22 51°13.374 2°51.557 -999 -999 -999 -999 -999
2007-01-24 09:30:27 51°13.363 2°51.529 -999 -999 -999 -999 -999
2007-01-24 09:30:32 51°13.353 2°51.499 -999 -999 -999 -999 -999
2007-01-24 09:30:37 51°13.343 2°51.471 -999 -999 -999 -999 -999
2007-01-24 09:30:42 51°13.333 2°51.442 -999 -999 -999 -999 -999
2007-01-24 09:30:47 51°13.323 2°51.414 -999 -999 -999 -999 -999
2007-01-24 09:30:52 51°13.314 2°51.385 -999 -999 -999 -999 -999
2007-01-24 09:30:57 51°13.302 2°51.358 -999 -999 -999 -999 -999
2007-01-24 09:31:02 51°13.293 2°51.328 -999 -999 -999 -999 -999
2007-01-24 09:31:07 51°13.281 2°51.301 -999 -999 -999 -999 -999
2007-01-24 09:31:12 51°13.272 2°51.272 -999 -999 -999 -999 -999
2007-01-24 09:31:17 51°13.262 2°51.244 -999 -999 -999 -999 -999
2007-01-24 09:31:22 51°13.252 2°51.215 -999 -999 -999 -999 -999
2007-01-24 09:31:27 51°13.243 2°51.186 -999 -999 -999 -999 -999
2007-01-24 09:31:32 51°13.233 2°51.157 -999 -999 -999 -999 -999
2007-01-24 09:31:37 51°13.223 2°51.128 -999 -999 -999 -999 -999
2007-01-24 09:31:42 51°13.213 2°51.1 -999 -999 -999 -999 -999
2007-01-24 09:31:47 51°13.204 2°51.07 -999 -999 -999 -999 -999
2007-01-24 09:31:52 51°13.194 2°51.042 -999 -999 -999 -999 -999
2007-01-24 09:31:57 51°13.184 2°51.014 -999 -999 -999 -999 -999
2007-01-24 09:32:02 51°13.174 2°50.985 -999 -999 -999 -999 -999
2007-01-24 09:32:06 51°13.166 2°50.962 -999 -999 -999 -999 -999
2007-01-24 09:32:12 51°13.154 2°50.928 -999 -999 -999 -999 -999
2007-01-24 09:32:17 51°13.143 2°50.9 -999 -999 -999 -999 -999